Voltar ao catálogo

STARLINK-34521

AtivoComunicaçõesVLEO
NORAD 64612·PAYLOAD·🇺🇸 United States

Lançado Jun 25, 2025 de Cape Canaveral Space Force Station

Loading…

Próximas Passagens (próximas 24 horas)

TLE

AtualizadoSource: CelesTrak SupGP

Época: Sep 15, 2026, 02:40 UTC

1 64612C 25137U   26258.11159722 -.00093187  00000+0 -27528-2 0  2581
2 64612  53.1592 174.5668 0001325  85.8148  66.2033 15.34442162    11

Acompanhe STARLINK-34521 em tempo real com AllMySat

Download on the App Store